www.pogodaiklimat.ru

Погода и климат >> Архив погоды >> Аргентина >> Ла-Плата


ПОГОДА в Ла-Плате

  • Прогноз погоды в Ла-Плате
  • Монитор погоды в Ла-Плате

АРХИВ ПОГОДЫ в Ла-Плате

Время (UTC), дата Ветер
(напр.,м/с)
 
Видим.   Явления Облачность Т
(С)
Тd
(С)
f
(%)
Тe
(С)
Тes
(С)
Комфортность P
(гПа)
Po
(гПа)
Тmin
(С)
Tmax
(С)
R
(мм)
R24
(мм)
S
(см)
00 16.07 штиль 0 10 км ясно +5.7 +5.5 99 +5 +5 1023.8 1020.9 +5.1 +15.6
03 16.07 штиль 0 6000 м дымка ясно +5.4 +4.7 95 +4 +4 1024.1 1021.3
06 16.07 З 1 7000 м дымка 1/0
[Ci fib]
+3.9 +3.9 100 +2 +2 1024.3 1021.6
09 16.07 штиль 0 8000 м дымка ясно +1.8 +1.8 100 0 0 1024.7 1021.8
12 16.07 штиль 0 2500 м в посл. час туман ясно +0.6 0.0 96 -1 +1 1026.0 1023.2 -0.7 +6.5 0.0
15 16.07 С 2 10 км ясно +13.7 +7.2 65 +14 +21 1026.1 1023.3
18 16.07 С 3 10 км ясно +14.4 +5.4 55 +14 +17 1024.3 1021.6
21 16.07 СВ 2 10 км 3/0
[Cs]
+11.3 +7.4 77 +10 +10 1024.2 1021.3
00 17.07 В 1 10 км местами туман поземный 3/0
[Cs]
+6.2 +6.2 100 +5 +5 1025.3 1022.4 +0.6 +15.0
03 17.07 С 3 10 км {туман} 1/0
[Ac cast]
+8.9 +5.4 79 +7 +7 1025.2 1022.4
06 17.07 С 2 10 км {туман} 3/0
[Ci fib]
+8.3 +5.7 84 +7 +7 1025.9 1023.2
09 17.07 С 2 10 км 3/0
[Ci fib]
+8.0 +6.0 87 +6 +6 1025.2 1022.4
12 17.07 С 3 10 км 1/0
[Ci fib]
+9.9 +6.0 77 +8 +8 1025.5 1022.6 +5.2 +9.9
15 17.07 С 6 10 км 1/0
[Ci fib]
+13.5 +6.0 60 +12 +14 1024.6 1021.8
18 17.07 С 5 10 км 4/0
[Cs]
+15.1 +5.8 54 +14 +16 1021.9 1019.2
21 17.07 СВ 2 10 км 6/0
[Ac As Cs]
+12.6 +9.3 80 +12 +12 1020.8 1018.0
00 18.07 С 3 10 км 8/0
[Cs]
+11.9 +8.5 80 +10 +10 1019.9 1017.2 +9.9 +16.0
03 18.07 С 3 10 км 9/0
[Cs]
+12.0 +8.8 81 +10 +10 1019.4 1016.6
06 18.07 СВ 4 10 км 9/0
[Cs]
+11.6 +8.6 82 +10 +10 1019.0 1016.2
09 18.07 С 3 10 км 9/0
[Ac As Cs]
+12.0 +8.2 78 +10 +10 1019.3 1016.5
12 18.07 С 4 10 км 8/0
[Ac und]
+11.3 +8.3 82 +9 +9 1020.9 1018.1 +11.2 +12.6
15 18.07 С 4 10 км 9/0
[Ac und]
+13.7 +9.4 75 +12 +14 1022.3 1019.6
18 18.07 СЗ 2 10 км 6/0
[Ac und]
+15.9 +10.3 69 +16 +18 1021.1 1018.4
21 18.07 штиль 0 10 км 10/0
[Ac As]
+13.7 +11.1 84 +13 +13 1020.7 1018.0
00 19.07 ЮЗ 2 8000 м слаб. дождь 10/0 1350 м
[As op]
+11.6 +10.6 94 +10 +10 1023.5 1020.8 +10.9 +16.2 0.0
03 19.07 ЮВ 2 7000 м слаб. дождь туман 10/0 1350 м
[As op]
+10.9 +10.3 96 +9 +9 1023.0 1020.2
06 19.07 Ю 1 7000 м дымка {дождь} 9/0 1350 м
[As op]
+10.2 +10.2 100 +10 +10 1021.9 1019.2 0.0
09 19.07 В 2 200 м туман ясно +8.2 +8.2 100 +6 +6 1019.5 1016.8
12 19.07 штиль 0 200 м туман 1/0
[Ci fib]
+7.5 +7.5 100 +6 +8 1019.9 1017.2 +6.4 +12.0 0.0
15 19.07 С 2 8000 м дымка {туман} 6/1 450 м
[Cu hum Ci]
+15.5 +12.1 80 +15 +21 1019.5 1016.8
18 19.07 С 3 10 км {туман} 4/0
[Ci fib]
+18.5 +11.5 64 +19 +23 1016.3 1013.6
21 19.07 СВ 2 10 км 6/0
[Ci]
+15.7 +12.5 81 +16 +16 1015.5 1012.8
00 20.07 СВ 2 10 км ясно +10.5 +10.1 97 +9 +9 1015.5 1012.8 +7.5 +18.5
03 20.07 штиль 0 100 м туман ясно +9.0 +9.0 100 +8 +8 1015.9 1013.0
06 20.07 С 1 800 м туман ясно +7.5 +7.5 100 +6 +6 1015.8 1013.0
09 20.07 СВ 1 <100 м {туман} ясно +9.0 +9.0 100 +8 +8 1014.8 1012.0
12 20.07 В 2 800 м туман 8/0
[Ac und Ci fib]
+12.2 +12.2 100 +11 +12 1015.2 1012.4 +4.9 +12.2
15 20.07 СВ 3 7000 м дымка {туман} 8/0
[Ac und Cs]
+15.8 +14.1 90 +15 +19 1014.6 1011.8
18 20.07 СВ 3 8000 м дымка {туман} 10/1 600 м
[Sc Ac As Cs]
+17.7 +15.0 84 +18 +19 1011.0 1008.2
21 20.07 В 3 8000 м дымка 10/0
[Ac As Cs]
+16.4 +15.2 93 +16 +16 1008.9 1006.1
00 21.07 В 3 10 км 9/0 1500 м
[Ac As]
+16.6 +14.9 90 +16 +16 1007.2 1004.5 +11.8 +17.7
03 21.07 СВ 4 10 км 8/0 1500 м
[Ac As Cs]
+16.7 +15.0 90 +16 +16 1004.7 1002.0
06 21.07 С 5 10 км 8/0
[Ac und Cs]
+19.4 +15.2 77 +21 +21 комфорт 1003.4 1000.6
09 21.07 С 5 10 км 8/4 750 м
[Sc Ac As Cs]
+19.1 +15.2 78 +20 +20 1002.5 999.8
12 21.07 С 5 10 км в посл. час дождь 8/3 750 м
[Cu med, cong Ac As Cs]
+18.8 +15.4 81 +20 +20 1002.2 999.4 +16.2 +20.0 0.0
15 21.07 С 6 10 км 6/1 1350 м
[Cb calv Cs]
+22.6 +15.7 65 +27 +29 душно 1001.8 999.0
18 21.07 С 6 10 км 8/1 900 м
[Cu med, cong Ac As Cs]
+24.0 +15.9 61 +27 +28 жарко 1000.5 997.8
21 21.07 ЮЗ 4 3000 м гроза, ливневой дождь 10/6 300 м
[Cb cap As op]
+19.1 +18.5 96 +21 +21 комфорт 1002.5 999.8
00 22.07 Ю 6 7000 м гроза, ливневой дождь 10/6 210 м
[Cb cap As op]
+12.3 +10.2 87 +10 +10 1007.3 1004.6 +12.3 +24.0 28
03 22.07 Ю 2 10 км в посл. час гроза 10/4 210 м
[St As op]
+11.2 +9.2 87 +10 +10 1011.6 1008.9
06 22.07 ЮЗ 4 10 км {гроза} 10/0
[Ac As]
+9.5 +7.4 87 +7 +7 1014.0 1011.3 18
09 22.07 ЮЗ 4 10 км 10/0
[Ac As Cs]
+7.8 +5.6 86 +5 +5 1014.4 1011.6
12 22.07 ЮЗ 3 10 км 9/0
[Ac As Cs]
+7.0 +5.0 87 +4 +5 1017.9 1015.2 +6.0 +12.3 46
15 22.07 Ю 5 10 км 10/0
[Ac As Cs]
+12.5 +5.2 61 +11 +13 1019.7 1016.9
18 22.07 Ю 4 10 км 10/0
[Ac As Cs]
+13.6 +4.3 53 +12 +14 1020.0 1017.2
21 22.07 Ю 3 10 км 10/0
[Ac As Cs]
+11.4 +5.1 65 +10 +10 1021.4 1018.6

 

Местоположение метеостанции Ла-Плата (Аргентина): широта -34.96 долгота -57.90 высота над уровнем моря 19 м.

В архиве по умолчанию представлена погода в Ла-Плате за последнюю неделю. Архивные данные за месяц целиком и за предыдущие месяцы, начиная с января 2011 года, Вы можете получить, выбрав интересующий диапазон дат из раскрывающегося списка и нажав кнопку "Ввод!".


*Определитесь, кто Вы:
робот инопланетянин человек

Внимание! Время в таблицах - всемирное. Для получения местного времени необходимо прибавить поправку, которая равна -3 ч.

Смотрите также архив погоды в соседних городах и на ближайших метеорологических станциях:

Погода в Колонии (Уругвай) (57 км)
Погода в Эсейсе (Аргентина) (60 км)
Погода в Буэнос-Айресе аэропорт (Аргентина) (64 км)
Погода в Буэнос-Айресе (Аргентина) (68 км)
Погода в Мелилье (Уругвай) (152 км)
Погода в Долоресе (Аргентина) (152 км)
Погода в Прадо (Уругвай) (156 км)
Погода в Лас Флоресе (Аргентина) (164 км)
Погода в Карраско (Уругвай) (174 км)
Погода во Флориде (Уругвай) (183 км)

Пояснения к столбцам:

Ветер - указаны скорость ветра в м/с - средняя за 10 мин, порывы в срок и между сроками (в фигурных скобках) и направление, откуда дует ветер: С - северный, СВ - северо-восточный, В - восточный, ЮВ - юго-восточный, Ю - южный, ЮЗ - юго-западный, З - западный, СЗ - северо-западный.
Видимость - горизонтальная дальность видимости в метрах или километрах. При видимости от 1 до 10 км при отсутствии осадков обычно наблюдается дымка, при ухудшении видимости до 1 км и менее - туман. В сухую погоду видимость может ухудшаться дымом, пылью или мглою.
Явления - указаны атмосферные явления, наблюдавшиеся в срок или в последний час перед сроком; фигурными скобками обозначены явления, наблюдавшиеся между сроками (за 1-3 часа до срока); квадратными скобками обозначены град или гололедные отложения с указанием их диаметра в мм.
Облачность - указаны через наклонную черту общая и нижняя облачность в баллах и высота нижней границы облаков в метрах; квадратными скобками обозначены формы облаков: Ci - перистые, Cs - перисто-слоистые, Cc - перисто-кучевые, Ac - высококучевые, As - высокослоистые, Sc - слоисто-кучевые, Ns - слоисто-дождевые, Cu - кучевые, Cb - кучево-дождевые. Подробнее классификацию облаков см. в Атласе облаков (PDF).
T - Температура воздуха - температура, измеренная на высоте 2 м над землей.
Td - Температура точки росы - температура, при понижении до которой содержащийся в воздухе водяной пар достигнет насыщения.
f - Относительная влажность воздуха - влажноcть воздуха, измеренная на высоте 2 м над землей.
Te - Эффективная температура - температура, которую ощущает одетый по сезону человек в тени. Характеристика душности погоды. При расчете учитывается влияние влажности воздуха и скорости ветра на теплоощущения человека.
Tes - Эффективная температура на солнце - температура, которую ощущает человек, с поправкой на солнечный нагрев. Характеристика знойности погоды. Зависит от высоты солнца над горизонтом, облачности и скорости ветра. Ночью, в пасмурную погоду, а также при ветре 12 м/с и более поправка равна нулю.
P - Атмосферное давление - приведенное к уровню моря атмосферное давление.
Po - Атмосферное давление - измеренное на уровне метеостанции атмосферное давление.
Tmin - Минимальная температура - минимум температуры воздуха на высоте 2 м над землей.
Tmax - Максимальная температура - максимум температуры воздуха на высоте 2 м над землей.
R - Количество осадков - Количество выпавших осадков за период времени, мм. При наведении курсора мыши на число - период времени, за который выпало указанное количество осадков.
R24 - Количество осадков - Количество выпавших осадков за 24 часа, мм.
S - Снежный покров - Высота снежного покрова, см. При наведении курсора мыши на число - состояние снежного покрова и степень покрытия местности в баллах.